Location: Bassano
(45.7667°N, 11.7333°E)
Time: 23:44:30
(UTC+00:00)

ISS - Pass Details

Date: 10 March 2021
Orbit: 418 x 421 km, 51.6° (Epoch: 22 April)

Event Time Altitude Azimuth Distance (km) Brightness Sun altitude
Exits shadow 03:11:10 31° 75° (ENE) 763 -1.9 -25.5°
Drops below altitude 10° 03:13:13 10° 96° (E) 1,496 -0.2 -25.1°
Sets 03:15:23 0° 102° (ESE) 2,370 0.9 -24.8°
